Theta_e
338 337 337 337 337 338 338 337 338 337 337 338 337 337 338 337 337 337 337 337 337 337 336 336 335 335 336 335 335 335 334 335 335 336 336 335 334 334 335 335 334 335 335 335 335 335 336 336 336 336 336 336 335 335 335 335 335 335 334 334 334 333 333 333 333 333 332 331 329 328 327 327 326 326 326 325 323 324 324 324 324 324 325 326 327
338 337 337 337 337 338 338 338 338 338 338 338 337 337 338 338 337 337 337 337 337 335 335 335 335 334 334 334 334 333 333 334 335 335 334 334 333 332 332 333 333 332 332 333 334 334 335 336 335 335 336 336 335 335 335 335 335 335 335 334 334 334 333 333 332 332 332 332 330 329 328 327 326 326 326 326 324 324 323 324 324 324 324 325 326
337 336 337 338 337 338 338 338 338 338 338 337 337 338 337 338 337 337 337 336 335 334 334 334 334 333 333 333 332 332 332 332 333 332 331 330 330 329 329 329 330 330 330 331 331 332 334 335 334 334 334 335 335 335 335 335 335 335 334 334 333 333 333 332 332 332 332 332 331 330 330 328 327 327 327 327 326 325 324 323 323 323 324 325 325
337 337 337 338 338 338 338 338 338 338 337 337 338 338 338 337 337 336 336 335 334 333 333 333 332 332 332 332 331 331 331 330 330 329 327 327 327 326 326 326 327 328 328 328 328 329 330 331 331 330 331 332 332 333 333 333 333 333 333 332 332 332 332 331 331 332 332 332 332 331 331 329 328 327 328 327 327 327 325 324 323 322 323 324 325
338 337 337 338 338 338 338 338 338 338 337 337 337 337 336 336 336 335 335 334 333 333 332 332 332 331 331 330 330 330 329 327 327 325 324 324 323 323 324 324 324 325 326 326 326 326 326 327 327 328 328 329 330 331 331 330 330 330 330 330 330 331 330 331 331 331 331 332 332 332 331 330 329 328 328 328 328 327 327 325 324 322 321 322 324
338 338 338 338 337 337 337 337 337 337 337 337 336 336 335 335 335 334 334 333 333 333 332 331 331 330 329 329 328 327 326 324 322 321 321 321 321 321 321 321 321 322 322 323 324 324 324 323 324 325 326 326 326 327 328 328 328 328 328 328 329 329 329 330 330 330 330 331 331 332 332 331 330 329 328 329 329 328 327 327 326 324 322 321 322
338 338 338 338 337 337 337 337 337 336 336 336 335 335 334 334 333 333 333 332 332 332 331 330 329 328 328 326 325 324 322 320 317 315 315 316 316 317 317 317 317 318 318 318 319 320 321 320 320 320 321 321 321 322 323 324 324 323 324 325 327 328 328 329 329 328 328 329 330 331 331 332 331 331 330 329 329 329 328 327 327 326 324 322 322
337 338 337 337 337 337 336 335 335 335 335 334 334 334 334 333 332 332 331 331 330 330 329 328 327 327 325 323 321 320 318 314 311 310 309 310 311 312 313 313 313 314 315 315 315 315 316 315 315 316 316 315 314 314 316 318 320 320 319 321 323 325 326 326 327 327 326 326 327 328 330 331 331 331 331 330 329 329 329 328 327 327 326 324 323
337 336 337 337 336 336 335 335 334 334 334 334 334 333 332 331 331 330 329 329 328 328 327 326 327 326 323 320 318 316 314 310 307 305 305 305 306 307 309 309 310 310 310 311 311 311 311 311 311 312 313 312 310 310 310 312 315 318 318 318 319 320 322 323 324 325 325 325 325 325 326 328 329 330 330 330 329 329 329 328 328 328 327 326 325
337 336 336 335 335 335 334 333 333 333 333 332 331 331 330 329 328 327 326 326 325 325 324 324 327 325 321 318 316 314 311 307 305 302 301 301 301 303 304 305 305 306 305 305 305 305 304 304 304 305 306 307 306 307 306 307 309 314 316 316 315 316 317 319 321 322 323 323 323 322 323 324 325 326 327 328 328 329 329 329 328 328 328 327 326
336 335 335 334 334 333 332 332 332 331 331 329 329 328 327 326 325 324 323 323 323 322 321 324 326 324 320 316 314 312 309 305 302 300 299 298 299 300 301 302 301 300 300 300 299 298 297 297 298 298 299 299 300 300 301 302 303 308 311 312 312 313 314 315 317 319 320 320 320 320 320 321 321 322 324 326 327 328 328 329 329 329 329 328 328
335 334 333 333 332 331 331 330 330 329 328 327 326 325 324 323 323 322 321 320 319 318 321 325 325 322 319 316 313 311 308 305 302 300 300 298 298 299 299 300 300 298 298 298 297 297 296 296 296 296 296 296 296 297 297 298 298 301 306 306 307 310 311 312 313 314 316 317 318 318 318 319 319 320 321 324 325 325 325 326 327 328 329 329 329
333 332 331 331 330 329 329 328 327 327 325 325 324 323 322 320 320 320 319 318 316 316 321 324 324 323 321 318 315 312 310 307 302 301 301 299 297 298 298 299 300 300 299 298 298 298 297 296 296 296 296 296 296 296 296 297 296 297 302 303 303 306 308 308 310 311 313 314 313 314 316 317 317 317 318 321 323 322 322 323 325 327 328 328 329
330 330 329 328 327 326 326 325 324 324 323 322 321 320 319 318 318 318 316 315 313 315 319 322 325 325 324 321 318 315 312 310 305 300 300 301 299 297 298 298 299 300 300 299 299 299 299 298 296 295 295 296 296 297 296 296 296 296 301 301 300 303 304 306 307 307 310 311 310 311 312 312 313 313 315 318 320 320 320 321 323 325 326 328 329
328 327 326 325 324 323 323 322 322 322 321 320 319 318 317 316 317 316 314 313 312 312 314 318 323 325 325 324 322 322 319 315 310 303 299 299 300 298 297 298 299 300 300 300 299 299 298 297 296 295 295 295 295 296 296 296 296 297 301 302 301 301 300 301 305 305 308 309 309 310 310 308 308 308 310 314 317 317 318 319 320 323 325 326 328
325 324 324 323 322 321 321 320 320 319 318 318 316 315 314 316 317 315 313 314 312 310 310 313 318 322 324 323 323 324 321 318 315 310 303 299 298 298 298 298 299 300 300 299 299 299 298 297 296 295 295 295 295 296 296 296 296 296 300 301 300 301 299 299 301 301 304 308 308 309 309 307 306 304 305 309 313 315 315 316 317 319 322 324 327
322 322 322 321 320 320 319 318 318 317 315 314 313 312 313 315 315 312 311 312 312 309 307 307 310 314 318 321 322 319 314 313 316 315 308 301 299 300 299 299 299 300 300 299 298 299 299 298 297 296 295 296 296 297 297 297 297 298 300 298 297 299 298 298 300 299 301 304 306 307 308 307 306 303 304 307 310 311 312 313 314 315 319 321 323
320 320 320 319 318 317 317 316 315 313 311 310 309 310 311 313 312 311 308 308 310 310 307 304 303 304 305 308 310 311 312 311 312 314 310 304 300 299 300 299 299 299 300 300 298 298 298 298 298 297 297 296 297 297 298 297 297 299 301 298 296 296 295 296 299 299 299 300 303 306 306 306 306 305 306 308 308 309 309 311 311 312 315 318 319
320 319 318 317 316 315 314 313 311 310 308 307 308 308 310 310 310 310 307 306 308 310 309 307 304 300 298 297 297 300 304 308 309 309 309 306 301 299 299 299 299 299 299 299 298 297 297 298 298 298 297 297 297 297 297 297 297 299 301 299 297 297 296 295 296 297 298 299 302 304 304 304 305 306 307 307 307 307 307 309 309 309 311 315 317
319 318 316 315 314 313 312 310 309 308 308 307 308 308 308 308 308 307 306 304 305 306 306 307 306 301 297 296 296 296 297 300 304 305 305 306 304 300 299 298 298 298 298 299 298 297 297 297 298 297 297 297 297 297 297 297 297 299 299 298 298 298 297 296 295 295 296 297 300 302 302 302 303 305 306 306 306 306 306 307 307 306 308 312 314
319 317 315 313 313 312 310 309 308 308 308 307 307 307 307 306 305 304 304 302 300 299 299 300 302 301 300 300 300 300 300 299 302 303 303 304 302 302 301 300 300 298 296 298 298 297 297 297 297 297 297 297 297 297 297 297 297 298 297 296 297 298 297 296 295 295 295 295 297 299 300 301 302 304 305 304 304 304 305 305 305 306 307 309 311
317 315 314 313 312 310 309 308 308 307 307 307 306 306 305 304 303 302 300 299 297 295 295 295 296 297 299 301 302 302 303 301 302 302 302 303 301 301 302 301 302 300 298 297 298 298 298 297 297 297 297 297 297 296 296 296 296 296 295 294 295 296 296 296 294 295 295 295 296 296 297 300 302 303 303 303 303 303 304 304 304 305 306 306 306
315 313 312 312 311 309 309 308 308 307 306 306 305 305 304 302 300 299 297 296 295 294 294 294 294 294 296 299 300 301 301 301 301 301 301 302 302 301 300 299 300 300 298 297 298 298 298 297 297 297 297 297 296 296 296 296 295 294 292 293 293 294 295 295 295 295 295 295 295 295 296 299 301 301 302 302 302 302 302 303 303 303 302 302 302
313 312 312 311 310 309 308 308 307 306 306 305 304 303 302 300 298 297 295 294 294 294 294 294 295 295 296 297 298 299 299 300 300 300 300 301 301 301 300 299 300 300 298 298 298 298 298 297 297 297 296 296 296 296 295 296 296 294 292 292 293 293 294 295 295 295 295 295 295 295 296 298 299 300 300 300 300 301 301 301 301 301 298 299 300
312 312 312 311 310 308 308 307 306 305 305 304 303 302 301 299 297 295 294 294 294 293 294 294 294 295 295 296 297 298 298 298 298 299 299 300 300 300 300 300 301 300 299 298 298 298 297 297 296 296 296 296 296 296 296 296 296 293 292 293 293 294 294 294 295 295 295 295 295 295 295 296 297 298 299 299 299 299 299 299 299 299 299 298 298
311 311 311 310 309 308 307 306 306 305 304 303 302 301 300 298 295 294 294 294 294 293 293 293 293 294 294 295 296 297 297 297 298 298 298 299 299 300 300 300 301 301 300 299 298 298 297 296 296 296 296 296 296 296 295 295 295 293 291 294 296 295 294 294 295 295 295 295 295 295 294 295 295 296 297 296 297 298 298 299 299 299 300 299 297
310 310 310 310 309 308 307 306 305 304 303 302 301 300 299 296 294 294 294 294 294 293 293 293 293 293 293 295 296 297 297 297 297 297 297 298 298 298 299 299 300 300 300 300 299 298 297 297 296 296 296 296 296 296 295 294 294 293 292 295 297 296 295 294 294 295 295 295 295 295 295 294 294 295 295 295 296 298 298 299 299 299 299 299 298
310 309 309 308 308 307 306 305 304 303 302 302 301 300 298 296 294 294 294 294 294 294 294 294 293 293 293 294 296 296 296 296 297 297 297 297 297 297 297 297 298 298 298 299 299 299 297 296 296 296 296 295 295 295 294 294 294 292 293 296 296 296 296 294 294 294 295 295 295 295 294 294 294 294 295 295 297 298 298 298 298 298 298 299 299
308 308 307 308 307 306 305 304 303 303 302 301 300 299 298 296 295 294 295 294 294 294 294 294 294 293 294 295 296 296 296 296 296 296 296 296 296 296 296 296 297 297 297 297 298 299 297 296 296 296 295 295 295 294 293 293 293 292 294 295 295 296 295 294 294 295 294 294 294 294 294 294 294 294 294 296 297 297 297 297 297 298 298 298 298
307 307 306 307 306 305 305 304 303 302 302 301 300 299 298 296 295 295 295 295 295 295 295 294 294 294 294 295 295 295 295 295 295 295 296 296 296 296 296 296 296 296 296 296 297 298 297 297 296 295 295 295 294 294 293 294 293 293 294 295 295 296 295 294 295 295 295 295 294 294 294 294 294 294 294 295 296 296 296 297 297 297 297 297 297
307 306 305 306 306 305 304 304 303 302 302 301 299 299 298 296 295 295 295 296 296 297 296 295 295 295 295 295 295 295 295 295 295 295 296 295 296 296 296 296 296 296 296 296 297 297 297 297 296 296 295 295 294 294 295 295 294 294 295 296 296 295 295 296 296 295 295 295 295 295 294 294 294 294 294 294 294 296 296 297 297 296 296 296 296
306 305 305 305 305 305 304 304 303 302 301 300 299 299 298 296 296 296 296 297 297 297 296 295 296 296 296 295 295 295 296 296 295 296 295 295 296 296 296 296 296 297 297 297 297 297 297 297 297 296 295 295 295 295 295 295 295 295 295 295 295 295 296 296 296 296 295 295 295 295 294 294 294 294 294 294 295 296 296 296 295 295 295 295 295
305 305 305 304 304 304 304 303 302 301 301 300 300 299 297 296 296 296 297 298 297 297 297 296 296 296 296 295 295 295 295 296 295 295 295 295 296 296 296 296 296 296 297 297 297 297 297 296 296 296 296 295 295 295 295 295 295 295 295 295 296 296 296 296 296 296 296 295 295 295 294 294 294 294 294 294 294 295 294 294 294 294 294 294 294
305 304 304 304 304 304 303 302 302 301 301 300 300 298 296 296 296 296 297 298 297 298 297 297 297 297 296 296 295 295 295 296 295 295 295 296 296 296 296 296 296 296 296 296 297 297 296 296 295 296 295 295 295 295 295 295 295 295 295 296 296 296 296 296 296 296 296 295 295 294 294 294 294 294 294 294 294 294 294 294 294 294 294 294 294
304 304 303 303 303 303 303 302 302 301 301 300 300 298 296 296 296 296 297 298 298 298 298 297 297 297 296 296 295 295 296 296 296 296 296 296 296 296 296 296 296 296 296 296 296 296 296 296 295 295 295 295 295 295 295 295 295 295 295 296 295 296 296 296 296 296 296 295 295 294 294 294 294 294 294 294 294 294 294 294 294 294 294 294 294
304 303 303 303 303 303 302 302 302 301 301 301 300 299 297 298 298 297 298 298 298 298 298 297 297 297 296 296 295 296 296 296 296 296 296 296 296 296 296 296 296 296 296 296 296 296 296 296 296 295 295 295 295 295 295 295 295 295 295 296 296 296 296 296 296 296 296 295 295 295 294 294 294 294 294 294 294 294 294 294 294 294 294 294 294
303 303 303 302 303 303 302 302 302 301 301 300 300 299 298 298 298 298 298 298 298 298 298 297 297 297 297 296 296 296 296 297 297 296 296 296 296 297 297 296 296 296 295 295 295 296 296 296 296 295 295 295 295 295 295 296 295 296 296 296 296 296 296 296 296 296 296 295 295 295 294 294 295 294 294 294 294 294 294 294 294 294 294 294 294
302 303 303 302 302 302 302 302 302 301 301 301 300 300 298 298 298 298 298 299 298 298 298 298 297 297 297 297 296 296 297 297 297 297 297 296 296 296 296 296 295 295 295 295 295 295 296 296 295 295 295 295 296 296 296 296 296 296 296 296 296 296 296 296 296 296 295 295 295 295 295 295 295 294 294 294 294 294 294 294 294 294 294 294 294
302 302 302 303 302 302 302 302 302 302 301 301 300 300 299 299 299 299 298 299 298 298 298 298 297 297 297 297 297 297 297 297 297 296 296 295 296 296 296 295 295 295 295 295 295 295 295 295 295 295 295 296 296 296 296 296 296 296 296 296 296 296 296 296 296 295 295 295 295 295 294 294 294 294 295 294 294 294 294 294 294 294 294 294 294
300 300 301 302 302 302 302 302 302 302 301 301 300 300 299 299 299 299 299 299 299 298 298 298 298 297 297 297 297 297 297 296 295 294 294 293 294 295 295 295 295 295 295 295 295 295 294 295 295 295 295 296 296 296 296 296 296 296 296 296 296 296 296 296 295 295 295 295 295 294 294 294 295 295 295 295 295 295 295 295 295 295 295 294 294
298 298 300 301 302 302 302 302 302 301 301 301 300 300 299 299 300 300 299 299 299 298 298 298 298 298 297 297 297 296 295 294 294 294 293 293 293 294 294 293 294 295 294 294 294 294 294 294 295 295 296 296 296 296 296 296 296 296 295 295 295 295 296 295 295 295 295 295 295 295 294 295 295 295 294 295 295 295 295 295 295 295 295 295 294
295 295 298 300 302 302 302 302 302 302 301 301 300 300 299 299 299 299 299 299 299 299 299 298 298 298 298 297 297 294 293 293 294 293 293 293 293 293 293 292 292 293 293 294 293 293 294 294 295 295 296 296 296 296 296 296 296 295 295 295 295 295 295 295 295 295 295 295 295 295 295 294 295 295 294 295 295 295 295 295 295 295 295 294 294
293 293 296 299 301 302 302 302 302 302 301 301 300 299 298 299 299 299 299 299 298 299 299 299 299 298 298 298 297 294 293 294 294 294 293 293 293 292 292 292 291 290 291 292 292 293 293 294 294 295 296 296 296 295 296 295 295 295 295 295 295 295 295 295 295 295 295 295 294 294 294 294 294 294 295 294 295 295 295 295 295 294 294 294 294
293 294 296 299 301 302 302 302 302 301 301 300 299 299 299 299 299 299 299 299 298 299 299 299 299 298 298 298 297 294 294 294 294 294 293 293 293 293 292 291 289 288 289 290 290 291 292 293 294 295 295 295 295 295 295 295 295 295 295 295 295 295 295 295 295 295 294 294 294 294 294 294 294 294 294 294 294 295 295 295 294 294 294 294 293
293 294 296 299 301 301 301 301 301 301 300 300 299 299 299 299 299 299 299 298 298 299 299 299 298 298 298 298 296 295 294 294 294 294 294 293 293 293 292 291 289 288 288 289 289 289 290 292 294 295 294 295 295 295 295 294 294 294 294 294 294 295 295 295 294 294 294 294 294 294 294 294 294 294 294 294 294 294 294 294 294 294 293 293 293
294 295 297 299 300 301 301 301 301 300 300 300 299 299 299 299 298 298 298 298 298 298 298 298 297 297 297 296 295 295 295 294 294 294 293 293 293 292 292 292 291 289 288 289 289 288 289 290 293 293 293 293 294 294 293 293 293 294 294 294 294 294 294 294 294 293 294 294 294 294 294 294 293 293 293 293 293 294 294 294 294 293 293 293 293
294 295 297 299 299 300 300 300 300 299 299 299 298 298 298 298 298 297 297 296 297 297 297 297 297 296 295 294 294 294 294 294 294 294 294 293 293 293 293 293 292 290 290 289 288 288 288 288 290 291 291 292 293 293 292 292 292 293 293 293 294 294 294 294 293 293 294 294 293 293 293 293 293 293 293 293 293 293 293 294 294 293 293 293 293
294 296 297 298 299 299 299 299 299 298 298 298 298 298 297 296 295 293 293 294 295 296 297 297 296 296 294 293 294 294 294 294 294 294 294 293 293 293 294 294 292 292 292 290 288 288 289 288 288 289 290 291 292 292 293 293 292 292 293 294 294 294 294 293 293 294 294 294 294 293 292 292 292 292 292 292 292 292 293 293 294 294 294 294 294
295 296 297 297 298 298 298 298 298 298 298 297 296 295 293 292 291 290 291 294 296 296 297 296 296 295 293 293 294 294 294 294 294 294 294 293 293 294 294 294 293 293 293 291 289 288 289 289 289 289 290 290 291 292 292 293 292 292 293 294 294 294 294 293 293 294 294 294 293 292 292 292 292 292 292 292 292 292 292 293 294 294 294 294 294
295 296 296 297 297 297 298 298 297 297 296 294 292 290 290 289 289 290 292 295 297 297 296 296 295 294 293 293 294 294 294 294 294 294 294 293 293 294 294 294 294 294 293 291 290 289 289 288 289 289 289 290 291 292 292 293 293 293 294 294 294 293 294 293 293 293 293 293 293 292 291 291 291 291 291 291 292 292 292 293 294 294 295 295 295
294 295 296 296 296 296 297 296 296 293 291 290 289 289 289 290 290 291 294 296 296 296 296 295 294 294 293 294 294 294 294 294 294 294 294 293 293 293 294 294 294 294 293 292 291 291 290 289 289 289 289 290 291 292 293 293 293 293 293 294 293 293 293 293 292 293 293 293 292 291 291 291 291 290 291 291 291 292 292 292 293 294 295 295 296
Wind_Speed
4 4 4 4 4 4 4 4 4 5 4 3 2 2 2 3 3 3 4 4 5 5 5 5 5 6 6 6 6 6 6 6 6 6 7 7 9 9 8 8 8 8 8 9 10 10 11 11 10 11 11 9 8 9 8 8 10 12 13 13 14 14 13 14 15 16 16 15 14 13 12 12 12 11 12 12 12 12 13 14 14 12 10 10 9
3 3 3 3 3 3 3 3 3 4 3 3 3 2 3 3 3 4 4 5 5 6 6 5 6 6 6 7 7 7 7 6 6 7 8 9 10 11 10 10 10 11 12 12 13 12 13 13 13 13 14 13 12 10 8 8 9 9 10 11 12 12 13 14 14 14 15 15 14 14 14 14 13 11 12 13 12 12 13 13 14 14 12 11 11
2 2 1 1 2 2 2 2 2 3 3 3 3 3 3 3 3 3 4 4 5 6 6 5 6 7 7 8 8 8 7 7 8 9 10 11 12 13 13 12 12 13 14 13 12 11 12 12 12 13 14 14 15 14 11 10 9 9 9 9 10 11 12 14 13 13 14 15 16 16 16 15 14 12 12 13 12 12 13 13 14 15 14 13 13
0 0 1 1 2 2 2 2 2 2 3 3 3 4 4 3 3 3 3 4 5 5 6 6 7 8 8 9 8 8 8 9 10 11 13 14 14 15 16 15 14 14 15 15 14 12 11 11 12 12 12 13 15 15 15 13 11 10 9 10 10 11 12 13 13 12 13 14 16 17 16 15 14 14 14 14 13 13 14 14 14 15 15 14 14
2 1 1 2 2 2 3 2 2 2 2 3 3 4 3 3 3 3 3 3 4 5 6 7 8 8 9 8 8 9 11 12 13 14 15 15 15 16 16 17 16 15 16 15 14 13 12 12 11 11 12 12 12 13 14 13 12 10 9 11 12 11 12 14 13 12 12 13 15 16 16 17 15 14 15 16 16 15 15 16 15 15 16 16 16
3 2 1 2 3 3 3 3 2 2 2 3 3 3 3 2 3 3 3 4 4 5 6 7 8 8 8 9 10 12 13 15 16 16 16 16 16 16 16 16 16 16 17 15 13 12 12 12 11 10 10 11 11 12 12 12 12 10 8 9 10 11 12 15 15 13 11 11 12 14 16 18 19 15 14 16 17 16 16 18 17 15 16 16 18
3 3 2 3 4 4 4 3 2 2 2 3 4 3 4 3 3 3 4 4 4 5 6 7 7 8 9 11 13 15 16 17 18 17 17 17 17 17 17 17 17 16 16 16 14 13 12 12 11 11 10 10 11 11 11 12 12 12 10 9 9 11 12 15 17 16 13 11 10 11 13 17 21 19 16 15 18 19 18 18 19 17 16 16 17
4 3 3 4 5 4 4 3 3 3 4 5 5 5 5 5 4 4 4 4 4 4 5 6 7 10 12 14 15 17 18 18 19 19 18 18 18 18 17 17 17 16 16 15 15 14 13 12 11 11 10 10 11 11 11 13 14 14 13 12 11 12 14 15 18 17 15 13 11 11 10 13 18 21 20 17 17 21 20 19 19 19 18 18 18
4 4 5 5 5 4 4 4 3 4 5 6 6 6 6 5 5 5 4 4 3 3 4 5 8 12 14 16 17 18 19 19 20 20 19 19 19 18 17 16 16 16 15 15 14 13 13 13 12 12 11 11 12 12 12 13 15 16 16 14 10 11 14 14 17 19 17 15 13 13 11 9 10 14 18 19 19 20 20 20 20 20 20 20 19
5 6 6 6 5 4 4 3 3 5 6 7 7 6 5 5 5 5 4 3 3 3 3 6 9 12 15 17 18 19 20 20 21 21 21 20 20 18 17 17 16 16 16 15 15 15 15 15 14 14 13 13 12 12 12 12 14 16 18 18 14 14 13 10 13 17 18 16 15 15 12 11 10 10 11 14 16 18 20 22 22 22 22 22 22
7 6 6 6 5 4 3 3 5 7 8 7 6 5 5 4 4 4 4 3 3 2 4 9 11 14 17 18 19 20 21 21 22 22 22 22 21 19 18 18 18 18 17 17 17 17 18 18 17 17 16 15 14 13 13 12 13 15 18 19 18 19 18 14 14 16 17 16 16 16 13 11 12 11 10 11 12 13 17 21 23 24 24 23 23
6 6 5 4 4 3 3 5 7 7 7 6 5 5 5 4 4 3 3 4 3 3 7 11 14 16 16 17 19 20 21 22 22 23 22 22 21 20 19 18 18 19 20 20 19 20 21 21 20 19 18 17 16 16 15 14 13 14 18 19 19 20 20 19 19 18 18 16 15 17 15 13 13 12 10 11 14 13 12 15 19 24 26 25 24
6 5 4 3 3 4 5 6 7 7 7 6 6 6 5 4 3 2 2 3 4 6 11 13 13 14 14 14 16 18 19 21 22 22 20 21 22 21 20 19 18 18 20 20 20 20 21 22 23 21 20 19 19 18 18 17 16 15 17 19 19 21 21 21 21 20 21 19 15 17 16 14 15 14 12 12 16 16 14 15 17 19 23 26 25
5 4 2 3 4 5 6 6 6 6 7 6 6 6 5 3 1 2 4 7 8 7 11 11 7 9 10 9 9 10 13 17 21 22 20 19 21 22 20 19 18 17 18 19 18 19 20 21 23 24 24 23 21 20 20 20 20 18 18 19 20 21 22 21 22 21 22 21 19 18 18 17 17 16 14 13 17 19 17 15 15 16 17 22 25
4 3 4 5 5 6 6 6 5 6 6 6 6 5 4 1 2 5 7 10 12 11 8 7 4 6 8 6 4 4 5 9 14 18 20 20 20 21 21 18 17 16 17 18 17 18 19 21 23 25 25 25 24 23 21 21 21 19 19 21 22 22 22 22 22 22 22 22 21 20 20 19 18 17 16 14 16 21 19 15 14 14 15 17 21
4 3 4 5 6 6 5 5 5 5 5 5 4 3 1 2 5 6 7 8 11 14 12 7 5 5 4 2 3 3 2 4 8 10 14 19 19 20 20 18 16 15 16 17 17 16 18 21 23 25 26 26 25 24 23 22 20 19 19 22 23 24 23 23 23 22 22 23 22 21 21 21 20 18 17 16 17 21 20 17 15 13 14 16 16
5 5 5 6 6 5 5 4 4 4 4 3 2 2 3 5 7 7 8 9 10 14 17 16 11 6 3 2 1 1 2 3 5 5 7 13 16 15 16 17 15 13 14 15 16 15 15 18 22 23 25 24 23 22 21 21 20 19 19 22 23 23 24 24 24 23 23 23 22 22 22 22 21 20 18 19 20 21 20 19 18 15 14 16 16
6 6 7 6 5 4 3 3 3 3 3 4 6 7 7 8 9 9 10 11 12 12 15 18 19 17 14 11 7 5 3 1 1 3 5 8 12 13 13 15 15 13 12 13 15 16 15 16 18 20 21 21 20 19 18 19 20 18 18 21 22 22 23 23 24 25 24 23 22 23 23 23 23 21 20 21 22 22 21 20 19 18 16 16 17
7 8 8 6 4 3 3 3 4 6 7 9 9 10 10 10 10 10 10 11 12 10 10 11 15 19 21 20 18 15 10 5 2 2 3 4 8 13 12 13 15 13 11 11 15 18 18 16 16 16 18 19 19 18 17 18 20 17 16 21 22 22 23 23 23 24 24 24 23 23 24 24 23 22 22 22 22 22 22 21 21 20 18 17 17
7 7 6 4 3 4 4 5 7 9 10 11 12 12 13 13 12 12 13 14 15 14 12 10 10 13 18 21 22 21 18 14 9 4 2 2 4 8 10 11 13 15 12 10 13 17 17 15 14 14 15 16 17 17 17 17 18 16 17 21 22 21 23 23 24 24 24 24 24 24 24 24 24 23 23 22 22 22 22 23 22 22 20 19 18
6 5 3 3 4 5 6 7 9 10 11 12 13 14 15 15 15 16 16 17 18 19 19 17 14 12 12 13 15 15 16 15 12 9 6 3 3 5 6 6 8 13 13 9 9 13 15 14 12 13 14 14 16 17 17 17 18 17 19 22 22 21 22 23 25 25 25 25 24 25 25 25 24 23 23 23 23 23 22 22 23 22 22 20 19
3 2 3 5 5 6 7 8 10 11 13 14 15 15 15 16 16 17 18 19 21 22 24 24 22 20 17 13 11 10 10 11 11 10 8 6 5 5 8 7 4 7 9 7 6 6 10 12 11 12 13 14 15 17 19 20 20 20 23 25 24 23 23 24 25 26 26 26 25 26 27 25 25 24 24 24 24 23 23 22 23 22 22 21 21
2 4 6 6 7 8 9 10 12 13 14 15 15 16 16 17 17 18 19 21 23 24 25 26 26 26 24 19 16 13 12 11 11 11 10 8 6 6 8 8 4 5 7 7 5 4 7 12 13 13 14 15 16 18 21 22 21 25 27 26 25 24 24 25 26 26 27 27 26 27 27 26 25 25 24 25 25 24 23 23 23 23 23 23 22
5 6 8 8 8 10 11 12 13 13 14 15 16 16 17 17 18 20 21 22 24 25 26 26 25 25 24 22 19 17 16 14 12 12 11 10 7 6 8 7 4 5 7 6 6 5 7 12 14 13 14 16 18 20 23 22 22 28 30 28 28 26 25 25 26 27 28 28 27 28 28 27 26 26 25 26 26 25 25 24 23 23 24 24 23
7 8 9 9 10 11 12 13 13 13 14 15 16 16 17 18 20 21 23 23 24 26 26 26 26 25 24 22 20 18 17 16 14 12 11 10 9 7 8 6 4 6 7 7 8 6 8 14 15 14 15 17 20 23 24 24 24 30 33 31 29 28 28 28 26 27 28 29 29 29 29 29 28 27 26 28 28 27 26 25 25 24 24 25 25
8 10 11 11 11 12 12 13 13 14 15 16 16 16 17 20 21 23 24 25 25 27 27 27 26 26 25 22 20 18 17 16 14 13 11 10 11 10 9 6 4 7 8 7 9 8 11 17 17 16 17 19 21 22 26 29 28 32 35 30 25 27 30 31 30 29 29 29 30 30 31 31 30 29 29 30 30 28 27 26 26 25 24 24 25
10 12 13 12 13 13 13 13 15 15 15 16 16 17 18 21 22 24 25 25 26 27 27 27 26 26 25 23 20 18 16 15 14 13 13 12 12 12 12 9 5 8 10 9 9 10 13 17 17 16 18 21 21 22 28 31 29 32 34 27 23 26 29 31 33 33 31 31 31 31 32 31 31 31 31 32 31 29 28 27 27 27 26 24 23
13 14 14 13 13 14 14 15 15 16 16 16 17 17 18 21 22 24 24 24 26 26 26 26 26 25 24 22 19 17 16 15 14 13 12 12 12 13 14 12 8 8 9 9 10 12 15 18 17 17 20 23 24 25 30 29 29 33 32 26 25 27 29 32 34 34 33 33 33 33 32 32 32 32 33 32 30 29 29 29 28 27 26 24 24
14 14 14 14 14 15 16 16 16 16 16 16 16 17 18 20 22 23 24 24 25 25 24 24 24 23 23 20 18 16 15 14 13 13 12 12 13 13 13 13 10 7 6 7 9 12 17 19 18 19 23 26 27 30 33 31 32 34 31 29 29 27 30 34 35 34 34 34 34 33 33 33 33 33 33 32 31 31 31 31 29 27 26 26 25
15 15 14 15 16 16 16 17 17 16 16 16 16 17 18 20 21 22 23 23 23 23 23 23 22 21 20 18 16 15 14 14 13 13 13 13 12 12 11 10 9 8 6 7 8 11 16 17 18 21 24 27 28 29 29 28 30 32 31 29 28 30 35 36 34 33 34 34 34 33 33 34 34 34 34 34 34 34 33 32 30 29 28 27 26
15 15 15 16 16 17 16 17 17 16 16 16 16 16 17 19 20 21 21 21 20 20 21 22 21 19 18 17 15 14 12 12 12 12 13 13 12 12 11 9 7 6 6 7 7 11 16 17 20 22 23 27 29 26 23 22 25 29 29 27 29 34 36 33 32 34 34 34 34 34 34 35 35 35 36 36 37 36 34 33 32 32 30 28 27
16 16 16 16 16 17 17 17 17 17 17 17 16 15 17 18 19 19 19 18 18 18 20 21 19 17 17 16 14 13 11 11 11 12 12 13 13 11 11 10 8 6 6 8 9 13 17 17 20 23 23 25 26 23 22 23 24 26 26 26 29 32 30 28 31 33 34 34 34 35 36 36 36 37 37 37 37 36 35 35 35 34 33 31 29
17 16 16 16 16 17 17 17 17 18 18 17 16 15 16 18 19 18 17 16 16 17 17 18 17 16 15 15 14 13 12 11 11 12 12 13 13 11 11 11 11 9 8 10 11 15 18 19 20 23 23 23 23 22 23 25 26 26 26 27 28 28 27 28 30 32 34 35 35 35 37 38 38 38 38 38 38 38 38 37 36 35 34 32 29
17 17 16 16 16 17 17 18 18 18 18 17 16 15 17 18 19 18 16 15 15 15 15 15 15 15 15 14 13 12 11 11 12 12 13 13 12 12 12 12 13 12 11 12 13 16 19 21 22 22 21 21 22 23 23 24 27 27 27 28 27 27 28 28 30 32 33 34 35 37 38 38 37 37 37 37 38 38 37 36 35 34 33 32 30
18 17 16 17 17 17 18 18 18 18 18 17 16 16 17 18 18 17 15 14 14 13 13 13 14 14 14 13 12 11 10 11 11 12 13 13 13 13 13 13 12 14 14 14 15 17 20 22 22 22 22 21 22 23 24 24 26 27 28 28 28 27 28 29 30 32 33 35 37 38 37 36 35 35 36 36 36 35 35 35 34 34 33 32 31
19 18 17 17 17 18 18 18 18 18 18 18 16 16 17 17 16 15 14 13 12 12 12 12 13 13 12 12 11 10 9 10 11 11 13 14 14 13 13 13 13 15 17 17 17 18 19 21 21 21 21 21 21 23 25 25 26 27 27 27 28 27 28 29 31 33 34 35 36 35 34 34 35 35 36 35 35 35 35 35 35 35 34 34 33
18 18 18 18 18 18 19 18 19 19 18 17 16 16 16 16 15 14 13 12 11 10 10 11 11 12 11 11 10 9 9 10 11 12 13 16 15 13 13 15 16 17 18 18 18 17 18 20 22 21 20 20 21 22 24 27 30 30 26 25 27 28 29 31 32 33 34 34 33 33 33 35 35 35 36 36 35 36 36 36 36 36 36 35 34
18 18 18 19 19 19 19 18 18 18 18 18 16 15 15 15 14 13 12 11 10 9 9 9 9 10 10 10 9 9 9 10 11 12 13 15 15 14 14 16 17 18 19 19 18 18 18 19 20 21 21 21 22 22 24 27 29 30 30 29 28 28 31 34 34 33 33 33 33 32 33 34 35 35 36 36 36 36 36 37 37 37 37 36 34
18 19 20 20 20 19 19 18 18 18 18 18 17 15 14 14 13 12 11 10 9 8 8 7 8 8 8 9 9 9 9 10 11 13 14 16 16 15 15 17 19 19 20 19 18 18 18 18 18 20 21 21 21 23 26 27 26 27 30 32 32 33 34 34 35 35 34 33 32 32 33 35 36 36 36 36 35 35 35 35 35 35 34 34 32
18 19 21 21 21 20 19 18 18 17 17 18 17 15 14 13 12 10 10 9 8 7 7 6 6 6 6 7 8 8 9 10 12 13 15 17 17 16 17 19 20 20 19 19 18 18 18 18 18 19 21 22 22 24 27 28 28 28 29 30 33 37 37 34 34 36 36 33 31 33 36 36 36 34 34 34 33 33 32 32 32 32 31 30 29
18 20 21 22 21 21 19 18 18 17 18 18 17 15 14 13 11 10 9 8 7 6 5 4 4 4 3 4 7 8 8 10 12 11 13 16 18 18 19 21 21 20 19 19 18 18 18 18 18 19 21 22 24 26 27 27 28 30 32 32 33 37 38 37 34 33 32 32 34 37 38 36 35 34 33 33 32 30 30 29 28 27 26 25 24
17 19 21 22 22 21 20 19 19 18 17 17 16 14 13 12 11 10 9 8 6 5 4 3 3 2 2 2 5 7 8 10 11 10 12 17 19 19 19 21 23 21 18 17 18 18 18 18 19 20 21 22 25 27 27 28 29 31 32 32 33 37 39 36 33 31 31 33 37 39 38 35 34 35 33 31 30 29 28 26 25 24 25 25 25
17 19 21 22 22 21 21 20 19 18 17 17 16 14 12 11 10 9 9 8 7 5 4 3 2 2 2 0 3 6 8 11 11 10 13 17 20 20 20 21 23 22 19 17 16 17 17 18 19 20 20 23 26 27 27 29 31 31 32 31 31 36 37 32 30 32 34 37 39 38 37 35 34 34 32 30 29 27 26 25 25 26 28 28 29
18 19 21 21 21 21 21 20 19 18 17 16 15 13 11 10 9 8 8 8 7 5 4 2 2 2 2 0 3 5 8 11 11 10 14 18 20 21 21 22 22 20 19 18 18 17 17 17 19 20 21 24 26 27 29 32 32 32 31 31 31 34 35 33 32 35 39 42 40 36 35 34 32 31 31 30 29 27 27 27 27 27 28 29 29
18 19 20 21 21 21 21 20 19 18 17 16 14 12 10 9 8 7 7 7 6 5 4 3 2 3 2 0 2 5 8 11 11 12 15 19 21 22 23 24 23 21 19 19 20 20 19 18 18 20 23 25 25 28 32 34 33 32 32 32 33 34 35 35 36 40 43 41 38 35 33 32 30 29 30 30 29 29 29 28 28 28 29 29 30
19 20 20 21 21 21 21 20 19 18 16 15 13 11 10 9 7 7 6 6 6 5 4 3 3 3 2 1 2 5 8 10 12 14 16 19 22 24 24 22 22 22 21 21 22 22 22 20 18 21 25 26 26 31 37 38 34 32 32 34 36 36 36 37 38 41 39 37 36 32 28 29 31 30 31 31 30 29 30 30 30 30 31 31 31
21 21 21 21 22 21 20 20 19 18 16 14 12 10 9 8 7 6 6 6 6 6 5 5 4 3 2 2 3 5 8 10 12 14 16 19 21 23 21 19 20 22 21 21 22 22 23 22 21 23 26 28 29 33 38 40 37 34 32 33 34 34 36 37 37 35 33 35 36 29 24 29 33 30 31 32 30 29 30 30 30 30 29 30 30
22 22 21 22 22 21 20 20 19 17 15 13 11 9 8 7 7 7 7 6 6 6 6 6 5 4 2 2 3 6 8 10 12 13 15 18 20 20 18 18 20 20 19 21 24 23 23 23 23 23 24 26 29 32 36 38 39 38 34 30 29 32 35 35 33 33 34 34 33 28 27 31 32 30 32 32 29 28 29 29 29 28 26 26 27
23 22 22 22 22 21 21 20 19 17 15 13 11 9 8 7 7 7 7 7 7 7 7 7 5 4 2 2 3 6 8 10 11 12 14 17 18 17 16 17 19 18 18 23 28 27 26 25 25 25 26 26 28 32 35 37 40 39 33 28 29 34 34 29 26 32 37 33 31 32 32 31 31 30 32 32 29 28 28 28 26 23 22 22 21
24 23 23 23 22 21 21 20 18 17 16 14 12 10 8 7 7 8 8 8 8 8 8 7 5 3 2 1 3 6 8 10 11 12 14 16 16 15 15 17 18 16 18 24 29 30 29 29 28 29 29 29 30 33 35 37 40 38 31 28 30 34 32 28 29 34 33 29 33 38 34 30 31 30 29 30 29 26 23 22 22 20 19 19 18
24 24 23 23 23 21 20 19 17 16 16 14 11 9 8 7 8 9 9 9 9 8 7 6 5 4 2 1 3 5 7 9 11 12 13 15 15 14 14 15 16 17 20 25 27 27 29 29 29 30 31 30 32 34 35 38 40 38 35 32 30 30 31 32 34 33 24 22 36 43 34 30 32 29 25 21 19 19 20 21 21 21 19 17 16
Wind_Direction
54 57 64 80 109 109 96 104 116 115 111 106 89 59 49 38 34 39 34 39 39 31 26 20 12 8 12 7 357 356 353 356 8 24 37 51 57 47 38 39 38 39 41 40 39 36 31 23 17 11 9 9 356 342 334 328 321 317 320 320 318 317 314 304 293 291 294 294 293 299 303 298 290 288 290 287 282 277 272 270 269 266 263 260 260
42 44 54 86 112 105 87 93 106 95 81 70 56 44 46 39 29 29 28 30 27 23 23 27 25 18 18 15 7 7 8 17 35 52 59 68 72 64 57 56 58 59 59 60 58 55 50 43 40 36 32 29 23 13 1 350 341 334 330 325 318 313 313 313 304 292 289 288 287 292 300 304 298 288 288 289 284 279 275 272 271 266 261 258 256
35 40 54 101 110 107 89 86 89 72 59 55 48 39 37 31 22 18 22 27 22 17 23 33 34 29 27 24 20 24 32 47 63 72 76 79 82 78 72 68 68 65 63 63 63 64 64 59 56 53 47 42 38 33 28 23 10 355 342 332 326 321 315 313 313 305 293 284 282 290 298 301 301 291 283 287 286 283 277 270 270 266 260 259 256
344 61 92 113 111 112 100 87 73 61 56 51 40 24 18 13 7 7 16 24 21 17 26 35 36 34 33 30 30 42 56 69 79 82 84 86 87 86 81 76 72 68 64 64 65 69 72 69 64 60 56 55 51 42 36 37 35 27 17 10 3 351 340 331 323 315 302 289 282 287 291 292 297 291 280 283 287 286 283 275 271 269 261 259 258
239 218 130 115 111 101 96 100 91 62 45 39 28 13 5 2 359 2 9 15 18 22 34 38 37 36 39 46 55 69 77 82 85 87 88 89 88 87 85 81 77 70 67 69 72 70 70 68 66 64 61 61 62 54 43 37 35 36 35 34 28 15 5 357 346 335 320 304 289 284 282 281 289 290 280 279 283 285 287 284 277 272 265 258 257
233 213 162 110 103 108 107 113 95 57 41 32 25 12 4 359 0 3 358 5 16 23 37 43 45 49 58 72 82 89 91 90 87 87 87 87 88 87 86 84 81 76 70 69 72 70 69 67 66 66 62 60 62 62 55 42 32 27 25 29 27 20 17 12 8 1 343 326 305 290 281 280 285 288 279 272 275 278 281 282 277 273 267 259 257
214 202 166 111 108 121 121 116 91 55 40 29 21 12 2 357 0 5 357 6 20 22 36 46 57 75 89 95 97 97 96 93 88 85 85 85 85 85 84 82 80 79 75 70 67 66 67 65 64 63 61 61 58 59 58 50 40 31 29 32 26 22 22 19 18 11 357 349 334 308 286 276 280 285 283 274 270 270 273 277 273 268 266 261 258
192 176 141 118 119 126 118 105 82 52 35 27 15 359 353 353 349 348 354 5 15 25 40 60 83 101 106 103 101 99 94 89 85 82 82 81 80 79 79 78 75 75 75 72 66 61 59 57 56 55 53 51 49 50 49 45 40 32 29 33 33 26 20 19 21 14 1 356 352 341 312 278 275 279 283 281 272 269 272 276 273 268 265 263 260
151 134 121 120 121 117 107 93 71 46 23 8 353 340 337 340 335 332 340 350 4 32 53 88 106 110 109 104 101 97 91 85 80 77 76 76 75 75 75 74 71 67 65 65 60 52 47 44 42 40 39 35 33 33 33 33 32 28 22 21 25 22 13 15 20 17 9 2 357 355 348 323 301 290 287 284 277 272 273 276 274 271 267 262 260
125 119 114 117 118 109 96 76 38 8 354 347 339 333 328 329 326 323 329 346 10 33 85 114 115 111 105 101 99 94 87 82 77 74 72 72 72 72 72 70 67 63 59 55 50 43 37 35 33 30 27 24 21 19 18 19 22 23 19 15 15 13 7 5 12 12 9 6 1 356 353 351 349 338 322 305 291 280 275 276 274 273 270 262 259
120 117 113 111 110 100 73 26 357 344 342 343 341 334 328 328 327 327 342 2 13 33 122 122 118 112 102 97 95 91 86 80 75 72 70 70 70 70 69 67 65 62 58 52 47 43 40 37 35 32 28 23 21 19 16 14 14 19 17 14 13 11 10 6 3 3 3 3 1 355 345 345 351 348 347 342 325 301 283 280 275 272 271 266 262
121 117 112 103 94 64 20 351 340 336 335 337 332 326 326 325 322 331 0 12 25 88 126 125 119 111 101 95 92 89 85 78 73 70 67 67 68 67 66 65 63 60 56 52 48 45 43 40 38 36 31 26 24 22 21 19 16 17 15 10 9 9 9 8 4 3 0 357 355 352 341 334 339 339 342 348 344 329 308 300 287 274 269 265 264
123 116 102 71 38 10 353 340 333 330 329 326 323 323 325 320 314 346 35 57 63 100 131 135 131 122 110 99 92 86 83 78 72 69 66 64 63 63 63 61 62 58 53 51 48 46 42 40 40 39 37 32 27 23 21 21 18 17 14 8 8 7 5 4 3 3 2 357 350 345 335 327 328 331 335 345 344 332 317 316 308 289 275 265 261
118 101 55 14 2 355 344 335 331 329 327 326 326 324 321 309 275 85 84 85 70 89 140 152 156 150 142 125 109 95 86 78 71 67 65 63 60 59 58 56 59 59 52 48 47 45 41 38 38 39 40 36 33 27 22 19 15 15 15 7 6 6 2 2 1 359 1 359 355 348 337 327 325 326 326 335 343 335 321 317 317 311 296 274 259
96 55 15 4 360 354 345 339 333 331 329 327 326 320 317 293 166 126 99 88 70 68 120 159 163 154 160 158 151 151 122 90 74 65 61 62 60 57 57 55 57 60 54 47 46 45 42 41 39 39 40 37 35 32 27 22 15 14 14 7 5 3 0 1 358 356 357 356 356 354 345 334 327 325 323 324 336 336 325 318 323 322 317 295 265
75 41 15 7 1 355 349 342 336 334 333 328 324 317 320 142 154 144 115 93 75 65 72 95 124 154 184 176 166 181 155 106 91 73 58 57 58 58 56 54 58 61 56 48 46 46 43 42 41 40 39 36 34 32 29 26 20 17 14 7 5 2 359 360 357 355 354 353 353 352 348 343 333 325 324 323 329 331 319 314 325 329 328 319 288
68 48 23 9 0 353 350 345 342 345 349 352 19 80 114 131 141 138 120 104 92 78 71 74 86 103 101 87 161 179 82 104 110 97 68 56 55 57 55 52 54 58 56 49 44 44 41 38 38 36 35 33 31 28 25 21 20 21 15 9 8 3 359 359 356 354 352 351 351 349 347 345 339 330 327 327 327 324 313 309 318 325 331 326 310
60 37 18 6 360 359 3 9 19 35 66 83 93 103 112 124 130 125 114 106 101 91 80 76 77 79 80 78 79 80 80 153 143 111 103 75 55 52 53 50 50 54 56 49 43 41 39 35 32 31 30 28 26 23 19 16 16 17 10 6 9 5 1 359 354 352 351 349 348 346 345 343 341 337 334 332 330 325 318 315 316 318 326 323 313
43 19 8 8 19 42 58 71 90 97 101 100 98 102 109 116 121 117 110 107 105 100 92 84 77 76 79 80 80 80 81 79 70 98 132 113 62 51 52 50 47 49 53 49 41 38 36 32 28 26 24 23 21 17 14 10 10 10 2 360 2 1 360 358 354 351 349 348 346 343 342 341 339 337 335 332 332 329 326 326 320 315 319 318 310
21 6 8 35 68 83 94 103 109 108 103 100 98 102 106 108 109 107 103 100 100 98 94 88 86 83 81 80 78 76 75 74 68 60 75 133 83 55 51 57 51 44 46 49 42 36 32 29 25 21 19 18 16 13 9 4 3 1 354 354 354 352 353 352 352 351 349 347 343 339 339 339 337 335 332 330 330 329 327 327 324 318 317 316 309
3 6 39 91 105 105 111 113 112 106 100 100 103 105 106 105 103 100 97 94 93 94 92 88 90 92 85 78 75 73 71 67 61 58 53 53 66 38 30 53 58 44 41 42 38 33 28 23 20 17 15 13 11 8 6 2 359 355 350 351 350 346 345 346 348 348 348 346 342 339 338 337 335 333 330 328 327 327 325 324 323 321 320 319 309
10 67 115 125 124 120 122 119 113 108 106 107 108 107 105 102 99 95 93 92 92 92 91 88 87 85 81 75 68 65 64 56 48 48 48 44 45 32 20 20 36 40 35 30 28 24 20 17 13 11 9 7 4 2 0 360 358 354 351 351 349 345 342 342 344 343 342 343 341 338 337 334 331 329 328 328 326 325 324 321 321 320 318 318 309
102 127 138 136 131 128 126 121 116 113 112 112 111 108 105 100 95 93 93 93 93 91 89 86 83 80 78 74 68 64 63 57 45 41 43 38 29 25 16 8 15 25 15 13 16 9 10 12 11 9 6 2 359 355 354 354 353 353 352 348 346 346 343 341 341 339 337 338 337 336 334 330 327 326 325 325 325 324 322 320 319 316 312 313 309
131 145 145 141 138 132 128 123 118 115 115 115 114 109 104 99 96 96 96 95 93 90 87 84 82 79 77 74 72 69 66 62 54 48 46 38 28 22 10 1 5 9 3 5 10 8 7 6 5 3 360 358 355 352 351 348 345 349 349 344 343 344 343 341 338 336 335 334 332 331 329 326 324 322 321 322 322 322 320 318 317 314 310 309 308
146 151 149 148 144 137 133 126 121 119 119 118 114 109 104 100 100 100 98 95 92 88 86 84 83 81 79 77 74 71 68 65 60 54 50 43 34 22 7 358 350 355 2 8 7 7 7 3 359 356 354 351 349 348 348 344 340 345 346 342 340 340 340 340 337 334 333 331 329 326 325 323 322 320 318 318 319 318 318 316 315 314 311 307 305
154 153 152 152 148 143 137 130 126 125 124 120 115 109 105 102 102 101 97 94 90 88 86 84 83 82 82 80 78 75 71 67 63 58 53 48 39 23 7 358 347 356 2 6 10 12 1 355 353 352 350 347 345 342 342 343 341 343 345 339 331 332 334 336 335 333 331 330 327 324 321 320 320 319 316 317 317 315 315 314 312 311 309 307 303
157 155 153 154 151 147 140 134 132 130 127 123 118 111 106 105 104 101 97 94 91 88 86 84 83 82 83 83 80 77 73 68 66 62 57 52 45 33 21 14 2 359 358 356 7 9 356 348 347 348 346 342 341 336 338 342 340 342 344 335 324 326 329 331 331 331 329 327 325 322 319 317 317 317 316 316 315 311 310 309 309 307 305 306 302
157 155 154 156 154 149 142 137 135 133 130 124 118 113 108 107 106 102 98 95 92 89 86 85 84 83 83 83 81 78 75 72 69 64 59 54 48 41 36 30 15 359 353 349 353 352 349 347 343 342 342 339 337 336 338 338 338 342 342 332 325 325 326 328 327 327 324 323 321 319 317 315 314 314 314 313 308 305 306 305 305 305 301 302 301
157 156 156 157 156 152 145 140 137 134 130 125 119 114 109 108 109 105 101 97 93 90 88 86 85 83 83 82 81 79 77 74 70 64 58 53 48 43 40 36 25 10 351 340 338 336 339 342 339 335 338 338 337 338 341 340 342 344 339 331 328 323 324 327 325 323 321 318 318 316 315 314 312 312 310 306 303 301 303 302 301 302 299 298 297
159 157 157 158 157 154 147 141 139 136 132 128 122 115 111 111 112 109 104 100 95 92 89 88 86 83 83 82 82 81 79 75 69 62 55 49 46 41 38 36 27 17 354 330 323 324 328 332 333 331 332 335 335 334 335 334 337 340 335 328 325 323 326 327 322 321 318 315 315 313 312 311 309 308 306 303 303 302 300 300 299 298 298 296 294
162 160 159 160 159 155 149 143 141 139 136 131 124 116 112 115 117 114 109 103 99 95 91 88 86 84 84 82 82 82 79 73 65 58 51 44 40 35 30 25 17 6 345 322 310 319 324 323 325 328 328 330 330 328 324 321 325 331 329 321 319 324 326 322 319 319 316 313 313 310 309 309 306 305 304 303 303 301 298 297 296 295 295 294 292
164 163 162 163 162 158 153 148 145 143 140 134 126 117 114 119 122 118 114 109 104 99 93 89 87 86 84 82 82 82 77 71 62 53 46 38 32 26 20 12 4 347 328 318 306 313 321 320 319 323 325 325 324 323 322 320 320 323 321 316 317 320 317 312 314 317 314 311 309 307 306 305 304 303 302 301 300 298 296 296 295 295 295 294 293
167 168 167 166 166 162 156 152 150 147 144 138 128 119 118 124 127 122 118 115 108 104 97 91 88 86 85 84 83 80 74 66 56 47 39 30 23 17 11 5 359 351 334 324 316 314 319 323 319 319 322 323 322 323 324 323 322 321 319 317 316 315 312 311 311 312 313 311 309 308 307 305 304 303 300 299 298 297 297 296 295 295 294 294 293
171 172 171 170 169 166 161 157 154 151 148 142 131 122 122 128 131 126 122 119 113 108 102 95 89 87 86 85 82 77 69 59 50 41 31 22 16 11 6 1 355 352 345 334 327 321 320 322 321 318 322 324 322 324 327 323 322 322 320 317 315 313 312 310 307 308 311 312 310 309 308 306 304 302 299 297 297 297 296 294 293 292 291 291 290
174 174 175 174 172 170 165 160 158 156 152 146 135 125 125 131 133 129 125 123 118 113 106 98 92 87 85 84 80 72 61 50 42 33 23 16 11 5 0 356 350 348 347 340 332 325 320 319 320 321 323 325 323 324 327 324 322 322 319 317 316 313 312 310 308 308 310 312 312 309 307 306 303 301 299 297 295 294 293 291 290 289 289 288 287
175 176 177 176 175 173 169 165 163 160 157 150 140 132 131 133 135 132 129 126 121 116 110 101 92 87 84 81 75 64 53 43 33 25 18 12 7 2 356 353 349 345 343 339 332 326 318 314 317 321 322 324 323 325 327 327 325 323 318 317 317 314 312 310 311 313 312 311 311 310 307 305 302 300 299 296 294 292 291 289 288 286 286 286 284
178 178 178 177 178 177 173 169 166 163 161 155 146 141 138 137 137 136 133 130 126 123 117 106 95 87 82 78 71 61 47 36 26 18 13 10 6 1 356 353 349 344 340 337 331 324 316 313 315 320 322 323 323 325 329 330 327 325 321 320 318 315 315 316 315 315 315 314 312 310 306 304 301 299 298 296 293 292 289 287 286 285 284 283 281
181 181 181 180 180 180 176 173 169 166 165 161 155 149 146 144 143 139 135 134 133 131 126 115 101 88 81 75 67 58 44 30 20 13 10 8 5 1 357 353 349 344 340 336 330 323 316 314 315 319 324 327 326 326 331 332 327 324 324 323 320 319 321 322 318 316 316 315 313 309 305 303 302 299 298 296 293 292 289 286 285 285 283 281 280
185 185 184 182 182 182 179 175 172 170 169 168 163 158 154 153 150 145 142 143 143 140 134 124 110 95 83 72 60 52 42 26 16 12 10 7 3 359 356 353 349 345 340 335 330 325 321 319 320 323 325 327 328 328 330 332 328 326 327 325 324 326 326 323 319 317 317 315 313 311 307 305 304 303 300 298 295 293 290 287 286 285 283 281 279
190 189 186 185 183 182 180 177 175 174 173 173 171 166 162 161 158 155 154 156 156 150 140 130 122 109 88 71 56 46 37 23 15 15 12 7 1 357 355 353 349 345 340 335 331 329 327 325 324 326 327 328 331 331 332 334 333 332 331 326 323 325 325 322 319 318 317 317 316 314 312 309 309 307 304 301 298 295 291 289 287 285 282 280 278
192 191 188 186 182 181 181 179 179 178 177 178 177 172 169 167 165 165 166 168 168 161 152 144 137 127 105 73 46 36 30 17 11 14 13 7 1 356 352 351 349 345 340 336 334 333 330 328 328 330 330 331 334 335 334 336 334 329 328 326 323 324 323 320 319 320 320 320 320 318 316 315 313 311 307 303 300 297 294 290 286 283 280 278 275
191 188 187 185 182 181 181 181 181 181 182 182 179 174 171 168 169 172 175 177 174 168 165 162 161 159 145 82 30 26 21 8 4 10 12 6 2 357 352 350 349 346 340 335 335 335 332 329 329 331 332 332 334 334 331 332 332 328 326 326 324 324 324 322 322 326 327 326 324 321 318 317 316 313 309 305 302 300 296 290 286 282 278 275 274
185 184 185 183 182 182 182 182 183 183 184 183 178 175 173 171 173 176 179 182 178 177 178 169 173 183 173 144 12 16 10 359 358 5 6 3 0 357 354 352 352 351 346 339 335 334 333 329 327 329 331 331 331 331 331 332 332 329 326 325 323 324 327 327 326 327 329 329 325 321 317 317 318 314 309 306 304 301 296 292 289 286 281 278 277
182 182 183 182 181 182 182 183 183 184 184 183 179 179 178 177 181 182 184 186 181 182 188 181 182 179 167 206 0 11 4 356 355 357 358 358 358 356 354 355 357 358 355 350 344 339 332 326 324 326 329 329 329 330 332 332 329 326 325 324 323 324 326 327 325 323 324 326 323 317 314 316 318 315 308 306 304 301 297 295 292 289 284 281 280
183 180 179 180 180 182 182 182 183 183 183 182 180 181 182 184 187 184 185 187 183 185 187 181 178 167 156 82 2 4 358 356 358 357 354 354 355 354 354 355 358 1 1 359 356 351 340 329 321 321 325 326 324 326 331 331 326 324 326 324 323 325 325 325 322 318 319 322 321 315 312 315 318 315 308 305 305 302 298 295 292 288 285 282 280
183 178 177 179 180 181 181 181 181 180 180 179 178 180 184 188 190 189 192 194 194 195 191 182 174 163 149 93 14 1 356 357 358 356 353 352 352 352 352 351 352 357 2 1 359 355 349 338 323 318 325 328 323 326 334 335 327 323 323 321 319 323 324 321 317 314 315 321 322 316 312 319 322 317 309 306 306 303 298 296 292 288 285 282 280
182 177 175 178 180 180 180 180 178 175 175 174 175 180 189 197 204 211 216 215 208 201 193 184 173 161 145 82 26 6 359 357 354 352 349 350 350 349 347 345 346 352 359 360 359 357 353 348 338 329 332 335 334 337 341 341 333 326 321 315 314 319 323 321 317 317 320 325 327 322 317 322 324 317 309 307 306 303 299 296 293 290 287 284 281
182 178 177 179 180 179 178 178 175 172 172 174 178 189 201 208 213 217 217 207 194 186 182 176 168 161 141 71 28 7 0 355 350 348 346 347 349 346 342 338 341 346 350 353 359 1 358 356 352 345 343 344 345 346 348 346 341 334 326 318 319 325 327 325 323 325 329 331 332 331 323 321 322 316 309 308 305 301 298 295 293 291 290 288 284
180 178 178 180 181 179 177 177 175 174 175 179 183 190 198 201 201 201 195 182 172 169 171 170 164 156 135 67 20 3 358 352 348 344 344 346 347 344 339 336 338 341 344 349 356 360 1 1 359 355 354 353 353 353 353 352 348 343 335 327 331 333 331 328 327 329 330 331 334 337 329 321 320 318 312 308 304 302 300 298 296 293 291 292 289
180 179 180 181 183 181 179 178 179 178 178 178 178 179 182 186 186 183 178 169 163 163 164 166 166 161 152 29 4 358 353 351 349 344 343 344 345 342 337 335 337 338 342 348 352 355 357 0 1 360 359 359 359 359 357 354 353 350 342 331 332 335 333 328 325 325 326 330 337 340 332 322 322 322 316 311 307 306 306 303 301 298 294 293 291
178 177 180 182 183 182 181 181 180 178 174 169 168 170 171 171 169 169 170 167 163 164 163 164 169 174 187 308 345 349 348 351 351 346 343 342 342 340 336 333 335 337 340 345 347 347 350 353 356 358 358 358 358 357 355 354 354 353 348 338 334 336 334 327 325 327 326 328 338 341 335 325 325 323 319 317 311 313 318 312 304 300 296 293 292